"2009-11-20 00:00:00",1431646,0.289,157.8,15.01,0.147,4.099,101.527,3.196,4.301,43.47,0,109.8,13.51,3.96,119.8
"2009-11-20 00:00:30",1431647,0.477,146.6,2.549,0.047,4.53,101.5265,3.194,4.287,43.46,0,109.8,13.52,3.96,108.6
"2009-11-20 00:01:00",1431648,1.942,163.8,7.802,1.243,7.919,101.5265,3.194,4.52,43.66,0,109.8,13.49,3.96,125.8
"2009-11-20 00:01:30",1431649,2.11,163.9,6.252,1.223,8.02,101.5163,3.168,4.526,43.68,0,109.8,13.49,3.93,125.9
"2009-11-20 00:02:00",1431650,1.099,168.1,9.66,1.144,6.331,101.4934,3.11,4.321,43.54,0,109.8,13.49,3.87,130.1
"2009-11-20 00:02:30",1431651,0.486,160.2,4.103,0.043,4.38,101.4925,3.108,4.29,43.57,0,109.8,13.52,3.87,122.2
"2009-11-20 00:03:00",1431652,1.448,165,8.88,1.259,5.594,101.4925,3.108,4.246,43.61,0,109.8,13.49,3.87,127.0
"2009-11-20 00:03:30",1431653,0.612,147.9,9.15,0.131,3.245,101.49,3.101,4.195,43.63,0,109.8,13.52,3.86,109.9
"2009-11-20 00:04:00",1431654,0.617,142.8,5.574,0.108,3.325,101.4665,3.041,4.176,43.62,0,109.8,13.53,3.80,104.8
"2009-11-20 00:04:30",1431655,0.453,144.8,6.919,0.063,3.845,101.4586,3.021,4.162,43.61,0,109.8,13.53,3.78,106.8
"2009-11-20 00:05:00",1431656,0.458,148.4,11.48,0.065,4.403,101.4586,3.021,4.143,43.67,0,109.8,13.53,3.78,110.4
"2009-11-20 00:05:30",1431657,0.883,158.9,11.05,1.015,6.314,101.4586,3.021,4.323,43.9,0,109.8,13.5,3.78,120.9
"2009-11-20 00:06:00",1431658,1.729,178,11.56,1.232,8.23,101.4383,2.969,4.354,44.03,0,109.8,13.5,3.73,140.0
"2009-11-20 00:06:30",1431659,1.678,175.3,5.03,1.29,7.673,101.4247,2.935,4.244,44.01,0,109.8,13.5,3.70,137.3
"2009-11-20 00:07:00",1431660,0.633,185.1,9.69,0.856,6.608,101.425,2.935,4.344,44.25,0,109.8,13.5,3.70,147.1
"2009-11-20 00:07:30",1431661,1.456,166.5,11.94,1.267,5.846,101.4256,2.937,4.093,44.07,0,109.8,13.5,3.70,128.5
"2009-11-20 00:08:00",1431662,0.387,181.4,10.5,0.088,3.868,101.4179,2.917,4.085,44.14,0,109.8,13.53,3.68,143.4
"2009-11-20 00:08:30",1431663,0.382,178.5,7.591,0.104,3.815,101.3956,2.86,4.012,44.1,0,109.8,13.53,3.62,140.5
"2009-11-20 00:09:00",1431664,0.312,184.1,15.7,0.053,3.715,101.3968,2.863,4.012,44.18,0,109.8,13.54,3.63,146.1
"2009-11-20 00:09:30",1431665,0.492,210.2,3.349,0.044,3.765,101.3979,2.866,3.98,44.22,0,109.8,13.54,3.63,172.2
"2009-11-20 00:10:00",1431666,0.448,210.1,5.245,0.162,4.358,101.402,2.877,3.99,44.25,0,109.8,13.54,3.64,172.1
"2009-11-20 00:10:30",1431667,1.732,199.5,15.2,1.251,8.02,101.3916,2.85,4.214,44.53,0,109.8,13.51,3.61,161.5
"2009-11-20 00:11:00",1431668,1.943,211.8,9.86,1.227,7.677,101.3775,2.814,4.143,44.53,0,109.8,13.51,3.58,173.8
"2009-11-20 00:11:30",1431669,1.099,204.9,4.426,1.142,5.598,101.3801,2.821,3.963,44.49,0,109.8,13.51,3.58,166.9
"2009-11-20 00:12:00",1431670,1.804,209.8,10.16,1.206,6.463,101.3832,2.829,4.116,44.65,0,109.8,13.5,3.59,171.8
"2009-11-20 00:12:30",1431671,0.267,228.3,16.95,0.085,3.703,101.3852,2.834,3.998,44.61,0,109.8,13.54,3.60,190.3
"2009-11-20 00:13:00",1431672,0.352,207.2,5.967,0.096,3.183,101.3816,2.825,3.891,44.66,0,109.7,13.54,3.59,169.2
"2009-11-20 00:13:30",1431673,0.217,193.7,14.24,0.095,3.362,101.3658,2.784,3.878,44.72,0,109.8,13.54,3.55,155.7
"2009-11-20 00:14:00",1431674,0.277,185.1,8.68,0.093,3.617,101.3576,2.763,3.864,44.72,0,109.8,13.54,3.53,147.1
"2009-11-20 00:14:30",1431675,0.133,136.9,12.27,0.051,3.856,101.3573,2.763,3.855,44.74,0,109.8,13.54,3.52,98.9
"2009-11-20 00:15:00",1431676,0.1,158.4,14.63,0.077,4.552,101.3573,2.763,3.849,44.71,0,109.8,13.54,3.52,120.4
"2009-11-20 00:15:30",1431677,1.118,136.3,13.08,1.218,6.406,101.3474,2.737,3.93,44.84,0,109.8,13.51,3.50,98.3
"2009-11-20 00:16:00",1431678,2.143,143.6,8.41,1.196,7.937,101.3239,2.677,3.985,44.97,0,109.8,13.51,3.44,105.6
"2009-11-20 00:16:30",1431679,1.012,136.3,6.4,1.023,5.524,101.3234,2.676,3.911,44.97,0,109.8,13.51,3.44,98.3
"2009-11-20 00:17:00",1431680,1.988,136.2,15.73,1.254,7.744,101.3234,2.676,4.029,45.14,0,109.8,13.51,3.44,98.2
"2009-11-20 00:17:30",1431681,1.369,128.8,6.667,1.212,5.936,101.3234,2.676,3.914,45.05,0,109.8,13.51,3.44,90.8
"2009-11-20 00:18:00",1431682,0.535,126.5,4.208,0.063,3.459,101.3174,2.661,3.758,44.92,0,109.7,13.55,3.42,88.5
"2009-11-20 00:18:30",1431683,0.569,118,5.617,0.148,3.508,101.292,2.596,3.746,44.98,0,109.7,13.55,3.36,80.0
"2009-11-20 00:19:00",1431684,0.538,140.6,12.62,0.111,3.719,101.2894,2.589,3.722,45.05,0,109.7,13.55,3.35,102.6
"2009-11-20 00:19:30",1431685,0.652,159.6,5.434,0.072,4.413,101.2894,2.589,3.714,45.14,0,109.8,13.56,3.35,121.6
"2009-11-20 00:20:00",1431686,0.813,151.5,16.29,0.764,5.504,101.2897,2.59,3.833,45.36,0,109.8,13.53,3.35,113.5
"2009-11-20 00:20:30",1431687,1.459,150.7,5.879,1.286,6.377,101.2892,2.589,3.733,45.33,0,109.8,13.53,3.35,112.7
"2009-11-20 00:21:00",1431688,1.161,143.3,8.68,1.15,6.77,101.2716,2.544,3.919,45.54,0,109.7,13.53,3.30,105.3
"2009-11-20 00:21:30",1431689,2.784,154.5,5.743,0.883,8.88,101.2581,2.509,3.956,45.63,0,109.8,13.53,3.27,116.5
"2009-11-20 00:22:00",1431690,1.588,151.4,7.455,1.209,6.3,101.2564,2.505,3.811,45.55,0,109.8,13.53,3.27,113.4
"2009-11-20 00:22:30",1431691,0.588,159.2,7.581,0.064,4.074,101.2567,2.506,3.652,45.38,0,109.7,13.56,3.27,121.2
"2009-11-20 00:23:00",1431692,0.498,158.7,11.94,0.096,3.628,101.2615,2.518,3.618,45.46,0,109.7,13.56,3.28,120.7
"2009-11-20 00:23:30",1431693,0.649,144.5,7.939,0.08,3.464,101.2638,2.524,3.623,45.51,0,109.7,13.56,3.28,106.5
"2009-11-20 00:24:00",1431694,0.568,148.1,13.07,0.054,4.068,101.269,2.537,3.604,45.6,0,109.7,13.56,3.30,110.1
"2009-11-20 00:24:30",1431695,1.715,163.9,8.95,1.201,6.487,101.2693,2.538,3.696,45.76,0,109.7,13.53,3.30,125.9
"2009-11-20 00:25:00",1431696,1.669,161.7,5.352,1.181,6.728,101.2645,2.526,3.735,45.95,0,109.7,13.53,3.29,123.7
"2009-11-20 00:25:30",1431697,1.948,146.8,6.697,1.201,6.85,101.2498,2.488,3.779,46.14,0,109.7,13.53,3.25,108.8
"2009-11-20 00:26:00",1431698,3.18,165.3,8.68,0.9,9.48,101.2473,2.482,3.903,46.44,0,109.7,13.53,3.24,127.3
"2009-11-20 00:26:30",1431699,1.668,165.6,4.424,1.21,6.041,101.2514,2.492,3.756,46.29,0,109.7,13.53,3.25,127.6
"2009-11-20 00:27:00",1431700,0.876,173.4,6.408,0.65,5.009,101.2545,2.5,3.631,46.21,0,109.7,13.53,3.26,135.4
"2009-11-20 00:27:30",1431701,0.839,189.2,4.093,0.051,3.983,101.2557,2.503,3.574,46.22,0,109.7,13.56,3.26,151.2
"2009-11-20 00:28:00",1431702,0.721,196.3,6.814,0.044,4.063,101.2559,2.504,3.575,46.25,0,109.7,13.57,3.26,158.3
"2009-11-20 00:28:30",1431703,1.319,188.3,6.732,1.11,5.476,101.2559,2.504,3.573,46.37,0,109.7,13.53,3.26,150.3
"2009-11-20 00:29:00",1431704,1.824,204.2,5.346,1.228,6.404,101.2559,2.504,3.682,46.5,0,109.7,13.53,3.26,166.2
"2009-11-20 00:29:30",1431705,1.156,201.7,5.181,0.944,5.948,101.2559,2.504,3.6,46.45,0,109.7,13.53,3.26,163.7
"2009-11-20 00:30:00",1431706,2.422,170.8,9.66,1.136,8.11,101.2559,2.504,3.747,46.6,0,109.7,13.53,3.26,132.8
"2009-11-20 00:30:30",1431707,2.116,189.4,13.31,1.273,7.537,101.2559,2.504,3.771,46.52,0,109.7,13.53,3.26,151.4
"2009-11-20 00:31:00",1431708,1.827,206.6,13.85,1.276,6.469,101.2559,2.504,3.71,46.39,0,109.7,13.53,3.26,168.6
"2009-11-20 00:31:30",1431709,0.573,178.3,11.77,0.133,3.929,101.2557,2.503,3.548,46.28,0,109.7,13.57,3.26,140.3
"2009-11-20 00:32:00",1431710,0.697,178.9,9,0.078,4.058,101.2559,2.504,3.559,46.28,0,109.7,13.57,3.26,140.9
"2009-11-20 00:32:30",1431711,1.053,166.7,10.15,0.929,5.225,101.2548,2.501,3.659,46.45,0,109.7,13.53,3.26,128.7
"2009-11-20 00:33:00",1431712,1.221,164.1,17.35,1.245,5.314,101.2537,2.498,3.617,46.47,0,109.7,13.53,3.26,126.1
"2009-11-20 00:33:30",1431713,1.367,161.4,11.64,1.075,6.365,101.2506,2.49,3.613,46.47,0,109.7,13.54,3.25,123.4
"2009-11-20 00:34:00",1431714,0.941,141.8,4.28,0.984,4.847,101.2472,2.481,3.57,46.49,0,109.7,13.54,3.24,103.8
"2009-11-20 00:34:30",1431715,2.28,143.2,6.874,1.274,8.02,101.2438,2.473,3.751,46.79,0,109.7,13.54,3.23,105.2
"2009-11-20 00:35:00",1431716,0.885,132.4,7.043,0.979,5.83,101.239,2.461,3.712,46.86,0,109.7,13.54,3.22,94.4
"2009-11-20 00:35:30",1431717,1.669,127.4,9.21,1.313,7.036,101.235,2.45,3.721,46.91,0,109.7,13.54,3.21,89.4
"2009-11-20 00:36:00",1431718,1.141,120.5,6.298,0.933,4.52,101.2302,2.438,3.537,46.85,0,109.7,13.54,3.20,82.5
"2009-11-20 00:36:30",1431719,0.526,122.1,4.709,0.089,3.768,101.2296,2.437,3.534,46.97,0,109.7,13.58,3.20,84.1
"2009-11-20 00:37:00",1431720,0.589,110.7,8.52,0.11,3.918,101.2274,2.431,3.535,47.05,0,109.7,13.58,3.19,72.7
"2009-11-20 00:37:30",1431721,1.375,101.1,3.655,1.143,6.062,101.2274,2.431,3.666,47.32,0,109.7,13.55,3.19,63.1
"2009-11-20 00:38:00",1431722,0.869,90.1,6.025,0.684,5.195,101.2262,2.428,3.598,47.42,0,109.7,13.55,3.19,52.1
"2009-11-20 00:38:30",1431723,0.984,91.5,5.61,0.997,6.451,101.2268,2.43,3.668,47.62,0,109.7,13.55,3.19,53.5
"2009-11-20 00:39:00",1431724,2.029,94.1,6.422,1.315,8.01,101.2291,2.435,3.784,47.79,0,109.7,13.55,3.20,56.1
"2009-11-20 00:39:30",1431725,1.818,88,6.05,1.313,7.533,101.2308,2.44,3.574,47.6,0,109.7,13.55,3.20,50.0
"2009-11-20 00:40:00",1431726,0.997,79.63,6.544,0.994,6.094,101.237,2.456,3.702,47.74,0,109.7,13.55,3.22,41.6
"2009-11-20 00:40:30",1431727,1.415,78.02,7.903,1.145,5.471,101.2398,2.463,3.548,47.61,0,109.7,13.55,3.22,40.0
"2009-11-20 00:41:00",1431728,0.724,71.45,4.457,0.045,4.131,101.2446,2.475,3.55,47.58,0,109.7,13.58,3.24,33.4
"2009-11-20 00:41:30",1431729,0.635,67.45,2.701,0.058,4.148,101.2472,2.482,3.54,47.57,0,109.7,13.58,3.24,29.4
"2009-11-20 00:42:00",1431730,0.571,66.45,1.53,0.049,4.731,101.2534,2.497,3.587,47.61,0,109.7,13.58,3.26,28.4
"2009-11-20 00:42:30",1431731,1.537,79.86,8.27,1.306,6.865,101.2523,2.495,3.664,47.67,0,109.7,13.56,3.26,41.9
"2009-11-20 00:43:00",1431732,1.372,89.6,7.3,1.208,6.679,101.2555,2.503,3.742,47.74,0,109.8,13.56,3.26,51.6
"2009-11-20 00:43:30",1431733,2.335,91.1,5.56,1.17,8.6,101.2597,2.513,3.804,47.76,0,109.7,13.55,3.27,53.1
"2009-11-20 00:44:00",1431734,1.093,84.3,7.049,1.044,5.839,101.262,2.519,3.561,47.47,0,109.7,13.55,3.28,46.3
"2009-11-20 00:44:30",1431735,1.607,100.6,8.65,1.273,6.664,101.2626,2.521,3.686,47.55,0,109.7,13.55,3.28,62.6
"2009-11-20 00:45:00",1431736,1.016,116.7,11.53,1.139,5.32,101.2657,2.529,3.732,47.57,0,109.7,13.54,3.29,78.7
"2009-11-20 00:45:30",1431737,0.278,176.5,17.48,0.086,3.962,101.2677,2.534,3.551,47.26,0,109.7,13.58,3.29,138.5
"2009-11-20 00:46:00",1431738,0.21,190.7,9.9,0.073,4.241,101.2728,2.547,3.568,47.11,0,109.7,13.58,3.31,152.7
"2009-11-20 00:46:30",1431739,0.388,192.2,14.36,0.12,4.303,101.2746,2.551,3.564,47.04,0,109.7,13.58,3.31,154.2
"2009-11-20 00:47:00",1431740,0.755,192.1,11.31,1.105,6.532,101.2768,2.557,3.694,47.06,0,109.7,13.55,3.32,154.1
"2009-11-20 00:47:30",1431741,0.738,184.5,13.52,0.871,5.191,101.2797,2.565,3.634,46.94,0,109.7,13.55,3.33,146.5
"2009-11-20 00:48:00",1431742,1.046,195.6,11.94,1.297,6.652,101.2811,2.568,3.67,46.92,0,109.7,13.55,3.33,157.6
"2009-11-20 00:48:30",1431743,1.351,168.1,7.02,1.218,6.51,101.2814,2.569,3.711,46.87,0,109.7,13.55,3.33,130.1
"2009-11-20 00:49:00",1431744,1.923,180.5,14.79,1.232,7.352,101.2823,2.571,3.722,46.85,0,109.7,13.55,3.33,142.5
"2009-11-20 00:49:30",1431745,0.891,214.1,15.71,1.111,5.419,101.284,2.576,3.738,46.8,0,109.7,13.56,3.34,176.1
"2009-11-20 00:50:00",1431746,0.821,225.1,7.428,1.052,4.344,101.2857,2.58,3.615,46.68,0,109.7,13.56,3.34,187.1
"2009-11-20 00:50:30",1431747,0.718,224.1,7.689,0.827,4.531,101.2843,2.576,3.725,46.7,0,109.7,13.56,3.34,186.1
"2009-11-20 00:51:00",1431748,0.366,219.3,3.49,0.061,3.304,101.2866,2.582,3.579,46.53,0,109.7,13.59,3.34,181.3
"2009-11-20 00:51:30",1431749,0.333,208.2,3.631,0.069,3.614,101.288,2.586,3.581,46.51,0,109.7,13.59,3.35,170.2
"2009-11-20 00:52:00",1431750,1.207,205.3,6.346,1.22,6.079,101.2889,2.588,3.711,46.62,0,109.7,13.56,3.35,167.3
"2009-11-20 00:52:30",1431751,0.264,195.6,10.53,0.477,4.907,101.2889,2.588,3.686,46.6,0,109.7,13.59,3.35,157.6
"2009-11-20 00:53:00",1431752,0.154,181,9,0.063,4.391,101.2838,2.575,3.609,46.54,0,109.7,13.6,3.34,143.0
"2009-11-20 00:53:30",1431753,1.155,182.9,15.45,1.218,6.377,101.2782,2.561,3.683,46.62,0,109.7,13.57,3.32,144.9
"2009-11-20 00:54:00",1431754,0.84,189.5,22.04,1.205,6.457,101.2603,2.515,3.823,46.85,0,109.7,13.57,3.28,151.5
"2009-11-20 00:54:30",1431755,1.352,91.2,28.65,1.214,6.425,101.2572,2.507,3.619,46.72,0,109.7,13.57,3.27,53.2
"2009-11-20 00:55:00",1431756,0.869,78.3,7.694,0.978,5.75,101.2564,2.505,3.718,46.99,0,109.7,13.57,3.27,40.3
"2009-11-20 00:55:30",1431757,1.438,75.42,11.02,1.206,6.669,101.2564,2.505,3.747,47.16,0,109.7,13.57,3.27,37.4
"2009-11-20 00:56:00",1431758,0.714,60.38,5.035,0.6,4.1,101.2564,2.505,3.566,47.11,0,109.7,13.57,3.27,22.4
"2009-11-20 00:56:30",1431759,0.527,61.07,2.125,0.026,4.101,101.2564,2.505,3.555,47.12,0,109.7,13.6,3.27,23.1
"2009-11-20 00:57:00",1431760,0.482,60.04,1.818,0.036,4.609,101.2564,2.505,3.64,47.23,0,109.7,13.6,3.27,22.0
"2009-11-20 00:57:30",1431761,1.455,65.13,6.125,1.25,6.446,101.2538,2.498,3.616,47.19,0,109.7,13.57,3.26,27.1
"2009-11-20 00:58:00",1431762,0.874,64.23,5.596,0.964,6.005,101.2433,2.472,3.671,47.25,0,109.7,13.57,3.23,26.2
"2009-11-20 00:58:30",1431763,1.824,70.79,7.485,1.285,7.862,101.2334,2.446,3.704,47.29,0,109.7,13.57,3.21,32.8
"2009-11-20 00:59:00",1431764,1.092,68.34,6.385,1.141,6.723,101.2267,2.429,3.769,47.47,0,109.7,13.57,3.19,30.3
"2009-11-20 00:59:30",1431765,1.142,67.25,5.333,1.156,5.583,101.2227,2.419,3.526,47.29,0,109.7,13.57,3.18,29.2
"2009-11-20 01:00:00",1431766,0.804,69.91,6.026,1.011,5.605,101.2224,2.418,3.684,47.55,0,109.7,13.57,3.18,31.9
"2009-11-20 01:00:30",1431767,0.92,73.51,4.52,1.131,5.334,101.2224,2.418,3.544,47.52,0,109.7,13.57,3.18,35.5
"2009-11-20 01:01:00",1431768,0.294,71.86,3.484,0.229,4.682,101.2224,2.418,3.634,47.66,0,109.7,13.6,3.18,33.9
"2009-11-20 01:01:30",1431769,0.264,75.08,2.108,0.036,4.278,101.2224,2.418,3.5,47.6,0,109.7,13.6,3.18,37.1
"2009-11-20 01:02:00",1431770,0.284,72.71,1.665,0.036,4.35,101.2224,2.418,3.484,47.59,0,109.7,13.6,3.18,34.7
"2009-11-20 01:02:30",1431771,1.268,72.04,5.573,1.25,6.172,101.2224,2.418,3.518,47.6,0,109.7,13.57,3.18,34.0
"2009-11-20 01:03:00",1431772,1.253,78.03,8.21,1.224,7.207,101.2224,2.418,3.692,47.83,0,109.7,13.57,3.18,40.0
"2009-11-20 01:03:30",1431773,1.42,86.8,6.054,1.233,7.577,101.2224,2.418,3.562,47.81,0,109.7,13.57,3.18,48.8
"2009-11-20 01:04:00",1431774,2.005,88.3,6.417,1.177,9.02,101.2224,2.418,3.642,47.95,0,109.7,13.57,3.18,50.3
"2009-11-20 01:04:30",1431775,0.286,74.44,2.877,0.058,5.209,101.2224,2.418,3.49,47.84,0,109.7,13.57,3.18,36.4
"2009-11-20 01:05:00",1431776,0.309,69.24,1.843,0.014,4.3,101.2221,2.418,3.497,47.9,0,109.7,13.6,3.18,31.2
"2009-11-20 01:05:30",1431777,1.504,78.89,7.83,1.232,6.712,101.2207,2.414,3.616,48.02,0,109.7,13.57,3.17,40.9
"2009-11-20 01:06:00",1431778,0.251,68.44,3.733,0.033,4.301,101.2182,2.407,3.582,48.04,0,109.7,13.61,3.17,30.4
"2009-11-20 01:06:30",1431779,0.201,67.38,1.977,0.028,4.117,101.2108,2.389,3.486,47.93,0,109.7,13.61,3.15,29.4
"2009-11-20 01:07:00",1431780,0.18,64.87,3.781,0.029,4.184,101.2057,2.376,3.483,47.94,0,109.6,13.61,3.14,26.9
"2009-11-20 01:07:30",1431781,0.208,57.7,1.618,0.032,4.499,101.2029,2.369,3.464,47.99,0,109.7,13.61,3.13,19.7
"2009-11-20 01:08:00",1431782,0.188,54.31,2.665,0.023,4.86,101.1984,2.357,3.463,48.01,0,109.7,13.61,3.12,16.3
"2009-11-20 01:08:30",1431783,1.397,55.89,5.599,1.241,7.558,101.1953,2.349,3.656,48.23,0,109.7,13.58,3.11,17.9
"2009-11-20 01:09:00",1431784,1.893,56.14,7.045,1.209,7.952,101.193,2.343,3.694,48.26,0,109.7,13.58,3.10,18.1
"2009-11-20 01:09:30",1431785,2.037,56.97,7.007,1.186,7.879,101.1899,2.335,3.621,48.13,0,109.7,13.58,3.10,19.0
"2009-11-20 01:10:00",1431786,0.193,48.22,3,0.033,3.809,101.1902,2.336,3.449,47.94,0,109.7,13.61,3.10,10.2
"2009-11-20 01:10:30",1431787,0.182,45.15,1.217,0.024,3.54,101.1913,2.339,3.44,47.91,0,109.7,13.61,3.10,7.2
"2009-11-20 01:11:00",1431788,0.174,48.52,4.205,0.013,3.612,101.1907,2.337,3.444,47.88,0,109.7,13.61,3.10,10.5
"2009-11-20 01:11:30",1431789,1.068,61.36,9.99,1.217,5.794,101.1927,2.343,3.617,48.06,0,109.7,13.59,3.10,23.4
"2009-11-20 01:12:00",1431790,0.333,59.75,3.267,0.663,4.107,101.1927,2.343,3.429,47.91,0,109.7,13.59,3.10,21.8
"2009-11-20 01:12:30",1431791,0.174,63.65,4.892,0.039,4.176,101.1959,2.351,3.427,47.93,0,109.7,13.62,3.11,25.7
"2009-11-20 01:13:00",1431792,0.151,68.59,6.708,0.03,4.289,101.1959,2.351,3.439,47.96,0,109.7,13.62,3.11,30.6
"2009-11-20 01:13:30",1431793,0.145,72.5,4.431,0.041,4.577,101.1962,2.351,3.433,47.99,0,109.7,13.62,3.11,34.5
"2009-11-20 01:14:00",1431794,0.629,70.81,6.391,0.951,5.86,101.197,2.354,3.447,48.02,0,109.7,13.59,3.11,32.8
"2009-11-20 01:14:30",1431795,1.844,78.35,8.32,1.247,8.31,101.2002,2.362,3.685,48.25,0,109.7,13.59,3.12,40.3
"2009-11-20 01:15:00",1431796,1.698,76.82,7.081,1.24,8.37,101.2011,2.364,3.68,48.26,0,109.7,13.59,3.12,38.8
"2009-11-20 01:15:30",1431797,0.603,73.17,4.42,0.894,5.99,101.2,2.361,3.48,47.99,0,109.7,13.59,3.12,35.2
"2009-11-20 01:16:00",1431798,0.086,93.9,13.88,0.045,4.124,101.1943,2.347,3.409,47.89,0,109.7,13.62,3.11,55.9
"2009-11-20 01:16:30",1431799,0.107,99.8,6.217,0.031,3.804,101.1943,2.347,3.4,47.92,0,109.7,13.62,3.11,61.8
"2009-11-20 01:17:00",1431800,0.188,92.1,7.171,0.206,4.361,101.1838,2.32,3.462,48.05,0,109.7,13.59,3.08,54.1
"2009-11-20 01:17:30",1431801,1.317,104.1,8.69,1.237,6.346,101.1762,2.3,3.501,48.04,0,109.7,13.58,3.06,66.1
"2009-11-20 01:18:00",1431802,0.208,118.4,7.796,0.062,4.067,101.1771,2.303,3.389,47.98,0,109.7,13.62,3.06,80.4
"2009-11-20 01:18:30",1431803,0.397,145.9,17.07,0.085,4.109,101.178,2.305,3.391,48.04,0,109.7,13.61,3.07,107.9
"2009-11-20 01:19:00",1431804,0.32,165.3,6.721,0.073,4.903,101.1788,2.307,3.372,48.1,0,109.7,13.62,3.07,127.3
"2009-11-20 01:19:30",1431805,0.518,131.5,7.611,0.784,4.915,101.1823,2.316,3.398,48.13,0,109.7,13.58,3.08,93.5
"2009-11-20 01:20:00",1431806,1.944,136.6,9.98,1.217,8.61,101.1814,2.314,3.65,48.41,0,109.7,13.59,3.07,98.6
"2009-11-20 01:20:30",1431807,1.532,131.9,11.01,1.307,7.503,101.1825,2.317,3.548,48.32,0,109.7,13.59,3.08,93.9
"2009-11-20 01:21:00",1431808,0.168,133.4,8.98,0.094,4.555,101.1848,2.322,3.468,48.21,0,109.7,13.61,3.08,95.4
"2009-11-20 01:21:30",1431809,0.152,119,9.28,0.032,4.044,101.1848,2.322,3.341,48.11,0,109.7,13.61,3.08,81.0
"2009-11-20 01:22:00",1431810,0.123,119.7,6.115,0.039,3.813,101.1869,2.328,3.362,48.08,0,109.7,13.62,3.09,81.7
"2009-11-20 01:22:30",1431811,0.82,117.7,8.06,1.108,5.663,101.1869,2.328,3.522,48.2,0,109.7,13.59,3.09,79.7
"2009-11-20 01:23:00",1431812,0.602,119.4,3.939,0.953,4.427,101.1869,2.328,3.344,48.01,0,109.7,13.59,3.09,81.4
"2009-11-20 01:23:30",1431813,0.118,123.7,1.465,0.016,3.79,101.1852,2.323,3.338,47.92,0,109.6,13.62,3.08,85.7
"2009-11-20 01:24:00",1431814,0.163,124.8,0.646,0.019,3.805,101.1744,2.296,3.346,47.85,0,109.7,13.62,3.06,86.8
"2009-11-20 01:24:30",1431815,0.122,125.7,2.204,0.015,4.109,101.1637,2.268,3.343,47.79,0,109.7,13.63,3.03,87.7
"2009-11-20 01:25:00",1431816,0.164,125.8,5.508,0.245,4.92,101.156,2.249,3.401,47.86,0,109.7,13.63,3.01,87.8
"2009-11-20 01:25:30",1431817,1.598,139.1,8.07,1.294,7.404,101.1549,2.246,3.388,47.84,0,109.7,13.6,3.01,101.1
"2009-11-20 01:26:00",1431818,2.13,148,7.23,1.02,9.08,101.1549,2.246,3.49,47.98,0,109.7,13.6,3.01,110.0
"2009-11-20 01:26:30",1431819,1.1,135.4,9.14,1.241,6.302,101.1549,2.246,3.433,47.92,0,109.7,13.6,3.01,97.4
"2009-11-20 01:27:00",1431820,0.195,141.6,5.424,0.03,4.081,101.1549,2.246,3.354,47.88,0,109.7,13.63,3.01,103.6
"2009-11-20 01:27:30",1431821,0.145,126.8,5.598,0.044,3.714,101.1549,2.246,3.308,47.91,0,109.7,13.63,3.01,88.8
"2009-11-20 01:28:00",1431822,0.118,124.9,4.691,0.036,3.637,101.1549,2.246,3.384,48.12,0,109.7,13.63,3.01,86.9
"2009-11-20 01:28:30",1431823,1.328,125.5,6.264,1.266,5.999,101.1549,2.246,3.381,48.14,0,109.6,13.6,3.01,87.5
"2009-11-20 01:29:00",1431824,0.103,121.7,4.857,0.04,3.804,101.1549,2.246,3.343,48.11,0,109.7,13.63,3.01,83.7
"2009-11-20 01:29:30",1431825,0.113,117.9,1.767,0,3.748,101.1543,2.245,3.276,48.04,0,109.7,13.63,3.00,79.9
"2009-11-20 01:30:00",1431826,0.125,120.3,2.488,0.023,4.149,101.1512,2.237,3.29,48.01,0,109.7,13.64,3.00,82.3
"2009-11-20 01:30:30",1431827,0.173,119.1,0.936,0.014,4.584,101.1438,2.218,3.264,47.92,0,109.7,13.64,2.98,81.1
"2009-11-20 01:31:00",1431828,1.248,124.3,6.243,1.225,6.962,101.1399,2.208,3.372,47.87,0,109.7,13.6,2.97,86.3
"2009-11-20 01:31:30",1431829,1.183,126.9,6.656,1.256,7.196,101.1274,2.176,3.406,47.84,0,109.7,13.6,2.94,88.9
"2009-11-20 01:32:00",1431830,1.662,131,6.5,1.297,8.05,101.1232,2.165,3.519,47.89,0,109.7,13.6,2.92,93.0
"2009-11-20 01:32:30",1431831,1.711,131.7,6.09,1.26,7.081,101.1209,2.159,3.351,47.71,0,109.7,13.6,2.92,93.7
"2009-11-20 01:33:00",1431832,0.303,124.3,0.917,0.002,4.28,101.1209,2.159,3.258,47.62,0,109.7,13.63,2.92,86.3
"2009-11-20 01:33:30",1431833,0.337,128.4,5.428,0.234,4.244,101.1209,2.159,3.351,47.78,0,109.7,13.63,2.92,90.4
"2009-11-20 01:34:00",1431834,1.424,143.4,5.648,1.268,5.564,101.1209,2.159,3.282,47.86,0,109.7,13.6,2.92,105.4
"2009-11-20 01:34:30",1431835,0.425,151.4,3.489,0.031,4.092,101.1209,2.159,3.275,47.93,0,109.7,13.63,2.92,113.4
"2009-11-20 01:35:00",1431836,0.43,146.7,5.932,0.031,3.898,101.1209,2.159,3.224,47.94,0,109.7,13.63,2.92,108.7
"2009-11-20 01:35:30",1431837,0.427,142.7,2.895,0.05,4.096,101.1209,2.159,3.241,48.03,0,109.7,13.63,2.92,104.7
"2009-11-20 01:36:00",1431838,1.411,147.4,7.74,1.224,6.477,101.1209,2.159,3.329,48.23,0,109.7,13.6,2.92,109.4
"2009-11-20 01:36:30",1431839,1.302,139.6,6.212,1.184,7.286,101.1209,2.159,3.421,48.35,0,109.7,13.6,2.92,101.6
"2009-11-20 01:37:00",1431840,1.727,135.9,6.624,1.283,7.141,101.1209,2.159,3.295,48.19,0,109.7,13.6,2.92,97.9
"2009-11-20 01:37:30",1431841,1.688,138,5.463,1.259,7.437,101.1209,2.159,3.325,48.15,0,109.7,13.6,2.92,100.0
"2009-11-20 01:38:00",1431842,0.537,134.6,0.817,0.029,4.642,101.1209,2.159,3.285,48.06,0,109.7,13.63,2.92,96.6
"2009-11-20 01:38:30",1431843,1.052,136,4.636,1.038,4.716,101.1209,2.159,3.245,47.93,0,109.7,13.6,2.92,98.0
"2009-11-20 01:39:00",1431844,1.739,141.1,6.288,1.238,6.489,101.1204,2.158,3.31,47.92,0,109.7,13.6,2.92,103.1
"2009-11-20 01:39:30",1431845,0.555,140.2,1.013,0.033,4.326,101.1209,2.159,3.207,47.78,0,109.7,13.64,2.92,102.2
"2009-11-20 01:40:00",1431846,0.569,138.9,0.874,0.022,4.387,101.1198,2.156,3.202,47.72,0,109.7,13.64,2.92,100.9
"2009-11-20 01:40:30",1431847,1.641,143.4,6.644,1.26,6.621,101.1209,2.159,3.352,47.8,0,109.6,13.61,2.92,105.4
"2009-11-20 01:41:00",1431848,1.238,141.5,6.288,1.097,6.653,101.1206,2.159,3.345,47.83,0,109.7,13.61,2.92,103.5
"2009-11-20 01:41:30",1431849,1.124,140.8,5.507,1.005,6.447,101.1209,2.159,3.347,47.84,0,109.7,13.61,2.92,102.8
"2009-11-20 01:42:00",1431850,2.297,146.7,6.628,1.212,7.913,101.1209,2.159,3.353,47.8,0,109.6,13.61,2.92,108.7
"2009-11-20 01:42:30",1431851,0.709,146.2,2.317,0.512,5.562,101.1209,2.159,3.363,47.78,0,109.7,13.61,2.92,108.2
"2009-11-20 01:43:00",1431852,1.229,146,5.863,1.123,5.509,101.1209,2.159,3.236,47.61,0,109.7,13.61,2.92,108.0
"2009-11-20 01:43:30",1431853,1.867,146.1,6.22,1.289,6.461,101.1209,2.159,3.375,47.71,0,109.7,13.61,2.92,108.1
"2009-11-20 01:44:00",1431854,0.599,139.4,1.724,0.052,4.42,101.1209,2.159,3.223,47.57,0,109.7,13.64,2.92,101.4
"2009-11-20 01:44:30",1431855,0.683,142.6,2.019,0.038,4.411,101.1209,2.159,3.226,47.64,0,109.7,13.64,2.92,104.6
"2009-11-20 01:45:00",1431856,1.72,150.6,6.046,1.209,6.583,101.1209,2.159,3.357,47.95,0,109.6,13.61,2.92,112.6
"2009-11-20 01:45:30",1431857,0.731,146.7,2.761,0.463,5.332,101.1209,2.159,3.332,48.02,0,109.7,13.64,2.92,108.7
"2009-11-20 01:46:00",1431858,1.621,159.8,9.74,1.276,6.809,101.1209,2.159,3.379,48.08,0,109.7,13.61,2.92,121.8
"2009-11-20 01:46:30",1431859,0.92,162.1,4.882,0.627,5.539,101.1212,2.16,3.384,48.09,0,109.7,13.61,2.92,124.1
"2009-11-20 01:47:00",1431860,2.259,167.4,5.369,1.213,7.873,101.1257,2.172,3.431,48.12,0,109.7,13.61,2.93,129.4
"2009-11-20 01:47:30",1431861,1.994,161.8,7.007,1.297,7.027,101.1365,2.199,3.388,48.07,0,109.7,13.61,2.96,123.8
"2009-11-20 01:48:00",1431862,1.135,160.2,4.306,0.86,4.888,101.147,2.226,3.341,47.92,0,109.7,13.61,2.99,122.2